Year,Month,Day,Hour,Minute,Value (Times are PST for temperature in C)
2008,07,02,00,00,14.80
2008,07,02,00,01,14.80
2008,07,02,00,02,14.80
2008,07,02,00,03,14.70
2008,07,02,00,04,14.70
2008,07,02,00,05,14.60
2008,07,02,00,06,14.60
2008,07,02,00,07,14.60
2008,07,02,00,08,14.50
2008,07,02,00,09,14.50
2008,07,02,00,10,14.50
2008,07,02,00,11,14.50
2008,07,02,00,12,14.50
2008,07,02,00,13,14.40
2008,07,02,00,14,14.40
2008,07,02,00,15,14.40
2008,07,02,00,16,14.40
2008,07,02,00,17,14.40
2008,07,02,00,18,14.40
2008,07,02,00,19,14.40
2008,07,02,00,20,14.40
2008,07,02,00,21,14.40
2008,07,02,00,22,14.40
2008,07,02,00,23,14.40
2008,07,02,00,24,14.40
2008,07,02,00,25,14.30
2008,07,02,00,26,14.30
2008,07,02,00,27,14.30
2008,07,02,00,28,14.30
2008,07,02,00,29,14.30
2008,07,02,00,30,14.30
2008,07,02,00,31,14.30
2008,07,02,00,32,14.30
2008,07,02,00,33,14.30
2008,07,02,00,34,14.20
2008,07,02,00,35,14.20
2008,07,02,00,36,14.20
2008,07,02,00,37,14.20
2008,07,02,00,38,14.20
2008,07,02,00,39,14.20
2008,07,02,00,40,14.20
2008,07,02,00,41,14.20
2008,07,02,00,42,14.10
2008,07,02,00,43,14.10
2008,07,02,00,44,14.10
2008,07,02,00,45,14.00
2008,07,02,00,46,14.00
2008,07,02,00,47,13.90
2008,07,02,00,48,13.90
2008,07,02,00,49,13.90
2008,07,02,00,50,13.80
2008,07,02,00,51,13.80
2008,07,02,00,52,13.80
2008,07,02,00,53,13.80
2008,07,02,00,54,13.80
2008,07,02,00,55,13.80
2008,07,02,00,56,13.70
2008,07,02,00,57,13.70
2008,07,02,00,58,13.70
2008,07,02,00,59,13.70
2008,07,02,01,00,13.70
2008,07,02,01,01,13.60
2008,07,02,01,02,13.60
2008,07,02,01,03,13.60
2008,07,02,01,04,13.50
2008,07,02,01,05,13.50
2008,07,02,01,06,13.40
2008,07,02,01,07,13.40
2008,07,02,01,08,13.40
2008,07,02,01,09,13.30
2008,07,02,01,10,13.30
2008,07,02,01,11,13.30
2008,07,02,01,12,13.30
2008,07,02,01,13,13.30
2008,07,02,01,14,13.30
2008,07,02,01,15,13.30
2008,07,02,01,16,13.20
2008,07,02,01,17,13.20
2008,07,02,01,18,13.20
2008,07,02,01,19,13.20
2008,07,02,01,20,13.20
2008,07,02,01,21,13.20
2008,07,02,01,22,13.20
2008,07,02,01,23,13.20
2008,07,02,01,24,13.20
2008,07,02,01,25,13.10
2008,07,02,01,26,13.10
2008,07,02,01,27,13.10
2008,07,02,01,28,13.10
2008,07,02,01,29,13.10
2008,07,02,01,30,13.10
2008,07,02,01,31,13.20
2008,07,02,01,32,13.20
2008,07,02,01,33,13.20
2008,07,02,01,34,13.20
2008,07,02,01,35,13.20
2008,07,02,01,36,13.20
2008,07,02,01,37,13.20
2008,07,02,01,38,13.20
2008,07,02,01,39,13.20
2008,07,02,01,40,13.20
2008,07,02,01,41,13.20
2008,07,02,01,42,13.20
2008,07,02,01,43,13.20
2008,07,02,01,44,13.20
2008,07,02,01,45,13.20
2008,07,02,01,46,13.20
2008,07,02,01,47,13.20
2008,07,02,01,48,13.20
2008,07,02,01,49,13.20
2008,07,02,01,50,13.20
2008,07,02,01,51,13.30
2008,07,02,01,52,13.30
2008,07,02,01,53,13.40
2008,07,02,01,54,13.50
2008,07,02,01,55,13.60
2008,07,02,01,56,13.60
2008,07,02,01,57,13.70
2008,07,02,01,58,13.70
2008,07,02,01,59,13.70
2008,07,02,02,00,13.70
2008,07,02,02,01,13.70
2008,07,02,02,02,13.60
2008,07,02,02,03,13.60
2008,07,02,02,04,13.60
2008,07,02,02,05,13.60
2008,07,02,02,06,13.50
2008,07,02,02,07,13.50
2008,07,02,02,08,13.50
2008,07,02,02,09,13.60
2008,07,02,02,10,13.60
2008,07,02,02,11,13.60
2008,07,02,02,12,13.60
2008,07,02,02,13,13.60
2008,07,02,02,14,13.60
2008,07,02,02,15,13.60
2008,07,02,02,16,13.60
2008,07,02,02,17,13.60
2008,07,02,02,18,13.50
2008,07,02,02,19,13.60
2008,07,02,02,20,13.60
2008,07,02,02,21,13.60
2008,07,02,02,22,13.60
2008,07,02,02,23,13.60
2008,07,02,02,24,13.70
2008,07,02,02,25,13.70
2008,07,02,02,26,13.70
2008,07,02,02,27,13.70
2008,07,02,02,28,13.60
2008,07,02,02,29,13.60
2008,07,02,02,30,13.60
2008,07,02,02,31,13.60
2008,07,02,02,32,13.60
2008,07,02,02,33,13.60
2008,07,02,02,34,13.50
2008,07,02,02,35,13.50
2008,07,02,02,36,13.50
2008,07,02,02,37,13.50
2008,07,02,02,38,13.50
2008,07,02,02,39,13.50
2008,07,02,02,40,13.50
2008,07,02,02,41,13.50
2008,07,02,02,42,13.50
2008,07,02,02,43,13.50
2008,07,02,02,44,13.40
2008,07,02,02,45,13.40
2008,07,02,02,46,13.40
2008,07,02,02,47,13.40
2008,07,02,02,48,13.40
2008,07,02,02,49,13.30
2008,07,02,02,50,13.30
2008,07,02,02,51,13.30
2008,07,02,02,52,13.30
2008,07,02,02,53,13.30
2008,07,02,02,54,13.30
2008,07,02,02,55,13.20
2008,07,02,02,56,13.20
2008,07,02,02,57,13.20
2008,07,02,02,58,13.20
2008,07,02,02,59,13.20
2008,07,02,03,00,13.10
2008,07,02,03,01,13.10
2008,07,02,03,02,13.10
2008,07,02,03,03,13.10
2008,07,02,03,04,13.10
2008,07,02,03,05,13.10
2008,07,02,03,06,13.10
2008,07,02,03,07,13.10
2008,07,02,03,08,13.00
2008,07,02,03,09,13.10
2008,07,02,03,10,13.10
2008,07,02,03,11,13.10
2008,07,02,03,12,13.10
2008,07,02,03,13,13.10
2008,07,02,03,14,13.10
2008,07,02,03,15,13.10
2008,07,02,03,16,13.10
2008,07,02,03,17,13.10
2008,07,02,03,18,13.10
2008,07,02,03,19,13.10
2008,07,02,03,20,13.10
2008,07,02,03,21,13.10
2008,07,02,03,22,13.00
2008,07,02,03,23,13.00
2008,07,02,03,24,13.00
2008,07,02,03,25,12.90
2008,07,02,03,26,12.90
2008,07,02,03,27,12.80
2008,07,02,03,28,12.80
2008,07,02,03,29,12.80
2008,07,02,03,30,12.80
2008,07,02,03,31,12.70
2008,07,02,03,32,12.70
2008,07,02,03,33,12.70
2008,07,02,03,34,12.60
2008,07,02,03,35,12.60
2008,07,02,03,36,12.60
2008,07,02,03,37,12.50
2008,07,02,03,38,12.50
2008,07,02,03,39,12.50
2008,07,02,03,40,12.40
2008,07,02,03,41,12.40
2008,07,02,03,42,12.40
2008,07,02,03,43,12.40
2008,07,02,03,44,12.40
2008,07,02,03,45,12.30
2008,07,02,03,46,12.30
2008,07,02,03,47,12.30
2008,07,02,03,48,12.30
2008,07,02,03,49,12.20
2008,07,02,03,50,12.20
2008,07,02,03,51,12.20
2008,07,02,03,52,12.20
2008,07,02,03,53,12.20
2008,07,02,03,54,12.20
2008,07,02,03,55,12.20
2008,07,02,03,56,12.20
2008,07,02,03,57,12.10
2008,07,02,03,58,12.10
2008,07,02,03,59,12.10
2008,07,02,04,00,12.10
2008,07,02,04,01,12.10
2008,07,02,04,02,12.10
2008,07,02,04,03,12.10
2008,07,02,04,04,12.10
2008,07,02,04,05,12.00
2008,07,02,04,06,12.00
2008,07,02,04,07,12.00
2008,07,02,04,08,12.00
2008,07,02,04,09,12.00
2008,07,02,04,10,11.90
2008,07,02,04,11,11.90
2008,07,02,04,12,11.90
2008,07,02,04,13,11.90
2008,07,02,04,14,11.90
2008,07,02,04,15,11.90
2008,07,02,04,16,11.90
2008,07,02,04,17,11.90
2008,07,02,04,18,11.90
2008,07,02,04,19,11.80
2008,07,02,04,20,11.80
2008,07,02,04,21,11.80
2008,07,02,04,22,11.80
2008,07,02,04,23,11.80
2008,07,02,04,24,11.80
2008,07,02,04,25,11.80
2008,07,02,04,26,11.80
2008,07,02,04,27,11.80
2008,07,02,04,28,11.80
2008,07,02,04,29,11.80
2008,07,02,04,30,11.80
2008,07,02,04,31,11.80
2008,07,02,04,32,11.80
2008,07,02,04,33,11.80
2008,07,02,04,34,11.80
2008,07,02,04,35,11.80
2008,07,02,04,36,11.80
2008,07,02,04,37,11.80
2008,07,02,04,38,11.80
2008,07,02,04,39,11.80
2008,07,02,04,40,11.70
2008,07,02,04,41,11.70
2008,07,02,04,42,11.70
2008,07,02,04,43,11.70
2008,07,02,04,44,11.70
2008,07,02,04,45,11.70
2008,07,02,04,46,11.70
2008,07,02,04,47,11.70
2008,07,02,04,48,11.70
2008,07,02,04,49,11.70
2008,07,02,04,50,11.60
2008,07,02,04,51,11.60
2008,07,02,04,52,11.60
2008,07,02,04,53,11.60
2008,07,02,04,54,11.60
2008,07,02,04,55,11.60
2008,07,02,04,56,11.60
2008,07,02,04,57,11.60
2008,07,02,04,58,11.60
2008,07,02,04,59,11.60
2008,07,02,05,00,11.60
2008,07,02,05,01,11.60
2008,07,02,05,02,11.60
2008,07,02,05,03,11.50
2008,07,02,05,04,11.50
2008,07,02,05,05,11.50
2008,07,02,05,06,11.50
2008,07,02,05,07,11.50
2008,07,02,05,08,11.50
2008,07,02,05,09,11.50
2008,07,02,05,10,11.50
2008,07,02,05,11,11.50
2008,07,02,05,12,11.50
2008,07,02,05,13,11.50
2008,07,02,05,14,11.50
2008,07,02,05,15,11.50
2008,07,02,05,16,11.50
2008,07,02,05,17,11.50
2008,07,02,05,18,11.50
2008,07,02,05,19,11.50
2008,07,02,05,20,11.50
2008,07,02,05,21,11.50
2008,07,02,05,22,11.50
2008,07,02,05,23,11.50
2008,07,02,05,24,11.50
2008,07,02,05,25,11.60
2008,07,02,05,26,11.60
2008,07,02,05,27,11.60
2008,07,02,05,28,11.60
2008,07,02,05,29,11.60
2008,07,02,05,30,11.60
2008,07,02,05,31,11.60
2008,07,02,05,32,11.60
2008,07,02,05,33,11.60
2008,07,02,05,34,11.60
2008,07,02,05,35,11.60
2008,07,02,05,36,11.60
2008,07,02,05,37,11.60
2008,07,02,05,38,11.60
2008,07,02,05,39,11.60
2008,07,02,05,40,11.60
2008,07,02,05,41,11.60
2008,07,02,05,42,11.70
2008,07,02,05,43,11.70
2008,07,02,05,44,11.70
2008,07,02,05,45,11.70
2008,07,02,05,46,11.70
2008,07,02,05,47,11.70
2008,07,02,05,48,11.80
2008,07,02,05,49,11.80
2008,07,02,05,50,11.90
2008,07,02,05,51,12.00
2008,07,02,05,52,12.00
2008,07,02,05,53,12.10
2008,07,02,05,54,12.10
2008,07,02,05,55,12.20
2008,07,02,05,56,12.20
2008,07,02,05,57,12.20
2008,07,02,05,58,12.20
2008,07,02,05,59,12.20
2008,07,02,06,00,12.30
2008,07,02,06,01,12.30
2008,07,02,06,02,12.30
2008,07,02,06,03,12.30
2008,07,02,06,04,12.30
2008,07,02,06,05,12.30
2008,07,02,06,06,12.30
2008,07,02,06,07,12.30
2008,07,02,06,08,12.40
2008,07,02,06,09,12.40
2008,07,02,06,10,12.40
2008,07,02,06,11,12.40
2008,07,02,06,12,12.50
2008,07,02,06,13,12.50
2008,07,02,06,14,12.50
2008,07,02,06,15,12.60
2008,07,02,06,16,12.60
2008,07,02,06,17,12.60
2008,07,02,06,18,12.60
2008,07,02,06,19,12.70
2008,07,02,06,20,12.70
2008,07,02,06,21,12.70
2008,07,02,06,22,12.70
2008,07,02,06,23,12.80
2008,07,02,06,24,12.80
2008,07,02,06,25,12.80
2008,07,02,06,26,12.90
2008,07,02,06,27,12.90
2008,07,02,06,28,12.90
2008,07,02,06,29,12.90
2008,07,02,06,30,13.00
2008,07,02,06,31,13.00
2008,07,02,06,32,13.00
2008,07,02,06,33,13.00
2008,07,02,06,34,13.10
2008,07,02,06,35,13.10
2008,07,02,06,36,13.10
2008,07,02,06,37,13.10
2008,07,02,06,38,13.20
2008,07,02,06,39,13.30
2008,07,02,06,40,13.30
2008,07,02,06,41,13.30
2008,07,02,06,42,13.30
2008,07,02,06,43,13.40
2008,07,02,06,44,13.40
2008,07,02,06,45,13.40
2008,07,02,06,46,13.40
2008,07,02,06,47,13.40
2008,07,02,06,48,13.50
2008,07,02,06,49,13.50
2008,07,02,06,50,13.50
2008,07,02,06,51,13.50
2008,07,02,06,52,13.50
2008,07,02,06,53,13.60
2008,07,02,06,54,13.60
2008,07,02,06,55,13.60
2008,07,02,06,56,13.60
2008,07,02,06,57,13.60
2008,07,02,06,58,13.60
2008,07,02,06,59,13.60
2008,07,02,07,00,13.60
2008,07,02,07,01,13.70
2008,07,02,07,02,13.70
2008,07,02,07,03,13.70
2008,07,02,07,04,13.70
2008,07,02,07,05,13.80
2008,07,02,07,06,13.80
2008,07,02,07,07,13.80
2008,07,02,07,08,13.80
2008,07,02,07,09,13.90
2008,07,02,07,10,13.90
2008,07,02,07,11,13.90
2008,07,02,07,12,14.00
2008,07,02,07,13,14.00
2008,07,02,07,14,14.10
2008,07,02,07,15,14.10
2008,07,02,07,16,14.20
2008,07,02,07,17,14.20
2008,07,02,07,18,14.30
2008,07,02,07,19,14.30
2008,07,02,07,20,14.40
2008,07,02,07,21,14.40
2008,07,02,07,22,14.50
2008,07,02,07,23,14.60
2008,07,02,07,24,14.60
2008,07,02,07,25,14.70
2008,07,02,07,26,14.70
2008,07,02,07,27,14.80
2008,07,02,07,28,14.90
2008,07,02,07,29,15.00
2008,07,02,07,30,15.00
2008,07,02,07,31,15.00
2008,07,02,07,32,15.10
2008,07,02,07,33,15.20
2008,07,02,07,34,15.30
2008,07,02,07,35,15.40
2008,07,02,07,36,15.40
2008,07,02,07,37,15.50
2008,07,02,07,38,15.60
2008,07,02,07,39,15.60
2008,07,02,07,40,15.70
2008,07,02,07,41,15.80
2008,07,02,07,42,15.80
2008,07,02,07,43,15.90
2008,07,02,07,44,15.90
2008,07,02,07,45,16.00
2008,07,02,07,46,16.00
2008,07,02,07,47,16.10
2008,07,02,07,48,16.10
2008,07,02,07,49,16.10
2008,07,02,07,50,16.10
2008,07,02,07,51,16.10
2008,07,02,07,52,16.10
2008,07,02,07,53,16.10
2008,07,02,07,54,16.10
2008,07,02,07,55,16.10
2008,07,02,07,56,16.10
2008,07,02,07,57,16.10
2008,07,02,07,58,16.10
2008,07,02,07,59,16.10
2008,07,02,08,00,16.20
2008,07,02,08,01,16.20
2008,07,02,08,02,16.20
2008,07,02,08,03,16.20
2008,07,02,08,04,16.10
2008,07,02,08,05,16.10
2008,07,02,08,06,16.00
2008,07,02,08,07,16.00
2008,07,02,08,08,15.90
2008,07,02,08,09,15.90
2008,07,02,08,10,15.90
2008,07,02,08,11,15.90
2008,07,02,08,12,15.90
2008,07,02,08,13,15.90
2008,07,02,08,14,15.80
2008,07,02,08,15,15.80
2008,07,02,08,16,15.80
2008,07,02,08,17,15.80
2008,07,02,08,18,15.80
2008,07,02,08,19,15.80
2008,07,02,08,20,15.80
2008,07,02,08,21,15.70
2008,07,02,08,22,15.60
2008,07,02,08,23,15.60
2008,07,02,08,24,15.50
2008,07,02,08,25,15.50
2008,07,02,08,26,15.50
2008,07,02,08,27,15.50
2008,07,02,08,28,15.50
2008,07,02,08,29,15.60
2008,07,02,08,30,15.60
2008,07,02,08,31,15.60
2008,07,02,08,32,15.60
2008,07,02,08,33,15.70
2008,07,02,08,34,15.70
2008,07,02,08,35,15.80
2008,07,02,08,36,15.80
2008,07,02,08,37,15.90
2008,07,02,08,38,16.00
2008,07,02,08,39,16.10
2008,07,02,08,40,16.20
2008,07,02,08,41,16.30
2008,07,02,08,42,16.40
2008,07,02,08,43,16.40
2008,07,02,08,44,16.50
2008,07,02,08,45,16.60
2008,07,02,08,46,16.70
2008,07,02,08,47,16.80
2008,07,02,08,48,16.80
2008,07,02,08,49,16.90
2008,07,02,08,50,17.00
2008,07,02,08,51,17.10
2008,07,02,08,52,17.10
2008,07,02,08,53,17.20
2008,07,02,08,54,17.30
2008,07,02,08,55,17.30
2008,07,02,08,56,17.40
2008,07,02,08,57,17.40
2008,07,02,08,58,17.40
2008,07,02,08,59,17.50
2008,07,02,09,00,17.60
2008,07,02,09,01,17.60
2008,07,02,09,02,17.70
2008,07,02,09,03,17.70
2008,07,02,09,04,17.80
2008,07,02,09,05,17.80
2008,07,02,09,06,17.90
2008,07,02,09,07,17.90
2008,07,02,09,08,17.90
2008,07,02,09,09,18.00
2008,07,02,09,10,18.10
2008,07,02,09,11,18.20
2008,07,02,09,12,18.30
2008,07,02,09,13,18.40
2008,07,02,09,14,18.50
2008,07,02,09,15,18.40
2008,07,02,09,16,18.40
2008,07,02,09,17,18.40
2008,07,02,09,18,18.40
2008,07,02,09,19,18.40
2008,07,02,09,20,18.40
2008,07,02,09,21,18.30
2008,07,02,09,22,18.30
2008,07,02,09,23,18.30
2008,07,02,09,24,18.40
2008,07,02,09,25,18.40
2008,07,02,09,26,18.50
2008,07,02,09,27,18.50
2008,07,02,09,28,18.60
2008,07,02,09,29,18.70
2008,07,02,09,30,18.70
2008,07,02,09,31,18.70
2008,07,02,09,32,18.80
2008,07,02,09,33,18.70
2008,07,02,09,34,18.70
2008,07,02,09,35,18.70
2008,07,02,09,36,18.70
2008,07,02,09,37,18.70
2008,07,02,09,38,18.70
2008,07,02,09,39,18.80
2008,07,02,09,40,18.90
2008,07,02,09,41,18.90
2008,07,02,09,42,19.00
2008,07,02,09,43,19.00
2008,07,02,09,44,19.10
2008,07,02,09,45,19.10
2008,07,02,09,46,19.10
2008,07,02,09,47,19.00
2008,07,02,09,48,19.00
2008,07,02,09,49,19.00
2008,07,02,09,50,19.00
2008,07,02,09,51,19.00
2008,07,02,09,52,19.10
2008,07,02,09,53,19.20
2008,07,02,09,54,19.30
2008,07,02,09,55,19.30
2008,07,02,09,56,19.40
2008,07,02,09,57,19.40
2008,07,02,09,58,19.40
2008,07,02,09,59,19.40
2008,07,02,10,00,19.40
2008,07,02,10,01,19.40
2008,07,02,10,02,19.40
2008,07,02,10,03,19.50
2008,07,02,10,04,19.50
2008,07,02,10,05,19.60
2008,07,02,10,06,19.60
2008,07,02,10,07,19.60
2008,07,02,10,08,19.50
2008,07,02,10,09,19.30
2008,07,02,10,10,19.10
2008,07,02,10,11,19.00
2008,07,02,10,12,18.80
2008,07,02,10,13,18.70
2008,07,02,10,14,18.60
2008,07,02,10,15,18.60
2008,07,02,10,16,18.60
2008,07,02,10,17,18.60
2008,07,02,10,18,18.60
2008,07,02,10,19,18.50
2008,07,02,10,20,18.40
2008,07,02,10,21,18.30
2008,07,02,10,22,18.30
2008,07,02,10,23,18.20
2008,07,02,10,24,18.20
2008,07,02,10,25,18.20
2008,07,02,10,26,18.20
2008,07,02,10,27,18.20
2008,07,02,10,28,18.30
2008,07,02,10,29,18.30
2008,07,02,10,30,18.40
2008,07,02,10,31,18.40
2008,07,02,10,32,18.50
2008,07,02,10,33,18.50
2008,07,02,10,34,18.50
2008,07,02,10,35,18.50
2008,07,02,10,36,18.60
2008,07,02,10,37,18.80
2008,07,02,10,38,18.80
2008,07,02,10,39,19.00
2008,07,02,10,40,19.10
2008,07,02,10,41,19.10
2008,07,02,10,42,19.20
2008,07,02,10,43,19.30
2008,07,02,10,44,19.30
2008,07,02,10,45,19.30
2008,07,02,10,46,19.30
2008,07,02,10,47,19.10
2008,07,02,10,48,19.10
2008,07,02,10,49,19.10
2008,07,02,10,50,19.10
2008,07,02,10,51,19.00
2008,07,02,10,52,19.00
2008,07,02,10,53,19.10
2008,07,02,10,54,19.10
2008,07,02,10,55,19.20
2008,07,02,10,56,19.30
2008,07,02,10,57,19.40
2008,07,02,10,58,19.50
2008,07,02,10,59,19.60
2008,07,02,11,00,19.60
2008,07,02,11,01,19.60
2008,07,02,11,02,19.60
2008,07,02,11,03,19.70
2008,07,02,11,04,19.70
2008,07,02,11,05,19.70
2008,07,02,11,06,19.70
2008,07,02,11,07,19.60
2008,07,02,11,08,19.60
2008,07,02,11,09,19.50
2008,07,02,11,10,19.50
2008,07,02,11,11,19.40
2008,07,02,11,12,19.40
2008,07,02,11,13,19.40
2008,07,02,11,14,19.40
2008,07,02,11,15,19.40
2008,07,02,11,16,19.50
2008,07,02,11,17,19.60
2008,07,02,11,18,19.70
2008,07,02,11,19,19.70
2008,07,02,11,20,19.70
2008,07,02,11,21,19.70
2008,07,02,11,22,19.80
2008,07,02,11,23,19.80
2008,07,02,11,24,19.90
2008,07,02,11,25,19.90
2008,07,02,11,26,19.90
2008,07,02,11,27,20.00
2008,07,02,11,28,20.10
2008,07,02,11,29,20.20
2008,07,02,11,30,20.30
2008,07,02,11,31,20.30
2008,07,02,11,32,20.30
2008,07,02,11,33,20.40
2008,07,02,11,34,20.30
2008,07,02,11,35,20.20
2008,07,02,11,36,19.90
2008,07,02,11,37,19.80
2008,07,02,11,38,19.60
2008,07,02,11,39,19.30
2008,07,02,11,40,19.00
2008,07,02,11,41,18.80
2008,07,02,11,42,18.70
2008,07,02,11,43,18.60
2008,07,02,11,44,18.50
2008,07,02,11,45,18.50
2008,07,02,11,46,18.50
2008,07,02,11,47,18.60
2008,07,02,11,48,18.80
2008,07,02,11,49,18.90
2008,07,02,11,50,19.10
2008,07,02,11,51,19.20
2008,07,02,11,52,19.30
2008,07,02,11,53,19.40
2008,07,02,11,54,19.50
2008,07,02,11,55,19.60
2008,07,02,11,56,19.70
2008,07,02,11,57,19.70
2008,07,02,11,58,19.70
2008,07,02,11,59,19.70
2008,07,02,12,00,19.80
2008,07,02,12,01,19.80
2008,07,02,12,02,19.90
2008,07,02,12,03,20.00
2008,07,02,12,04,20.00
2008,07,02,12,05,20.20
2008,07,02,12,06,20.20
2008,07,02,12,07,20.30
2008,07,02,12,08,20.40
2008,07,02,12,09,20.40
2008,07,02,12,10,20.40
2008,07,02,12,11,20.40
2008,07,02,12,12,20.40
2008,07,02,12,13,20.40
2008,07,02,12,14,20.40
2008,07,02,12,15,20.30
2008,07,02,12,16,20.30
2008,07,02,12,17,20.30
2008,07,02,12,18,20.30
2008,07,02,12,19,20.30
2008,07,02,12,20,20.30
2008,07,02,12,21,20.30
2008,07,02,12,22,20.30
2008,07,02,12,23,20.30
2008,07,02,12,24,20.30
2008,07,02,12,25,20.40
2008,07,02,12,26,20.40
2008,07,02,12,27,20.50
2008,07,02,12,28,20.60
2008,07,02,12,29,20.70
2008,07,02,12,30,20.70
2008,07,02,12,31,20.80
2008,07,02,12,32,20.90
2008,07,02,12,33,21.00
2008,07,02,12,34,21.10
2008,07,02,12,35,21.20
2008,07,02,12,36,21.30
2008,07,02,12,37,21.30
2008,07,02,12,38,21.40
2008,07,02,12,39,21.50
2008,07,02,12,40,21.50
2008,07,02,12,41,21.60
2008,07,02,12,42,21.70
2008,07,02,12,43,21.80
2008,07,02,12,44,21.90
2008,07,02,12,45,22.00
2008,07,02,12,46,22.20
2008,07,02,12,47,22.30
2008,07,02,12,48,22.50
2008,07,02,12,49,22.60
2008,07,02,12,50,22.70
2008,07,02,12,51,22.80
2008,07,02,12,52,22.80
2008,07,02,12,53,22.80
2008,07,02,12,54,22.80
2008,07,02,12,55,22.80
2008,07,02,12,56,22.80
2008,07,02,12,57,22.70
2008,07,02,12,58,22.70
2008,07,02,12,59,22.70
2008,07,02,13,00,22.60
2008,07,02,13,01,22.60
2008,07,02,13,02,22.60
2008,07,02,13,03,22.60
2008,07,02,13,04,22.50
2008,07,02,13,05,22.50
2008,07,02,13,06,22.50
2008,07,02,13,07,22.50
2008,07,02,13,08,22.50
2008,07,02,13,09,22.50
2008,07,02,13,10,22.50
2008,07,02,13,11,22.60
2008,07,02,13,12,22.60
2008,07,02,13,13,22.70
2008,07,02,13,14,22.80
2008,07,02,13,15,22.90
2008,07,02,13,16,23.00
2008,07,02,13,17,23.00
2008,07,02,13,18,23.10
2008,07,02,13,19,23.20
2008,07,02,13,20,23.20
2008,07,02,13,21,23.20
2008,07,02,13,22,23.20
2008,07,02,13,23,23.20
2008,07,02,13,24,23.20
2008,07,02,13,25,23.10
2008,07,02,13,26,23.10
2008,07,02,13,27,23.10
2008,07,02,13,28,23.10
2008,07,02,13,29,23.10
2008,07,02,13,30,23.10
2008,07,02,13,31,23.10
2008,07,02,13,32,23.10
2008,07,02,13,33,23.10
2008,07,02,13,34,23.10
2008,07,02,13,35,23.00
2008,07,02,13,36,22.90
2008,07,02,13,37,22.90
2008,07,02,13,38,22.70
2008,07,02,13,39,22.60
2008,07,02,13,40,22.50
2008,07,02,13,41,22.30
2008,07,02,13,42,22.20
2008,07,02,13,43,22.00
2008,07,02,13,44,21.90
2008,07,02,13,45,21.80
2008,07,02,13,46,21.60
2008,07,02,13,47,21.50
2008,07,02,13,48,21.50
2008,07,02,13,49,21.30
2008,07,02,13,50,21.00
2008,07,02,13,51,20.90
2008,07,02,13,52,20.70
2008,07,02,13,53,20.60
2008,07,02,13,54,20.40
2008,07,02,13,55,20.30
2008,07,02,13,56,20.20
2008,07,02,13,57,20.20
2008,07,02,13,58,20.20
2008,07,02,13,59,20.20
2008,07,02,14,00,20.20
2008,07,02,14,01,20.10
2008,07,02,14,02,20.10
2008,07,02,14,03,20.00
2008,07,02,14,04,20.00
2008,07,02,14,05,20.00
2008,07,02,14,06,20.00
2008,07,02,14,07,20.10
2008,07,02,14,08,20.10
2008,07,02,14,09,20.10
2008,07,02,14,10,20.10
2008,07,02,14,11,20.10
2008,07,02,14,12,20.10
2008,07,02,14,13,20.10
2008,07,02,14,14,20.10
2008,07,02,14,15,20.00
2008,07,02,14,16,19.90
2008,07,02,14,17,19.80
2008,07,02,14,18,19.80
2008,07,02,14,19,19.80
2008,07,02,14,20,19.80
2008,07,02,14,21,19.80
2008,07,02,14,22,19.80
2008,07,02,14,23,19.80
2008,07,02,14,24,19.80
2008,07,02,14,25,19.80
2008,07,02,14,26,19.90
2008,07,02,14,27,20.00
2008,07,02,14,28,20.20
2008,07,02,14,29,20.30
2008,07,02,14,30,20.50
2008,07,02,14,31,20.60
2008,07,02,14,32,20.70
2008,07,02,14,33,20.70
2008,07,02,14,34,20.80
2008,07,02,14,35,20.80
2008,07,02,14,36,20.80
2008,07,02,14,37,21.00
2008,07,02,14,38,21.00
2008,07,02,14,39,21.10
2008,07,02,14,40,21.20
2008,07,02,14,41,21.10
2008,07,02,14,42,21.10
2008,07,02,14,43,21.10
2008,07,02,14,44,21.10
2008,07,02,14,45,21.20
2008,07,02,14,46,21.20
2008,07,02,14,47,21.20
2008,07,02,14,48,21.20
2008,07,02,14,49,21.20
2008,07,02,14,50,21.20
2008,07,02,14,51,21.20
2008,07,02,14,52,21.10
2008,07,02,14,53,21.20
2008,07,02,14,54,21.20
2008,07,02,14,55,21.20
2008,07,02,14,56,21.30
2008,07,02,14,57,21.30
2008,07,02,14,58,21.30
2008,07,02,14,59,21.30
2008,07,02,15,00,21.30
2008,07,02,15,01,21.30
2008,07,02,15,02,21.20
2008,07,02,15,03,21.20
2008,07,02,15,04,21.20
2008,07,02,15,05,21.30
2008,07,02,15,06,21.40
2008,07,02,15,07,21.50
2008,07,02,15,08,21.50
2008,07,02,15,09,21.50
2008,07,02,15,10,21.60
2008,07,02,15,11,21.60
2008,07,02,15,12,21.50
2008,07,02,15,13,21.50
2008,07,02,15,14,21.50
2008,07,02,15,15,21.50
2008,07,02,15,16,21.40
2008,07,02,15,17,21.40
2008,07,02,15,18,21.40
2008,07,02,15,19,21.40
2008,07,02,15,20,21.30
2008,07,02,15,21,21.10
2008,07,02,15,22,21.00
2008,07,02,15,23,20.90
2008,07,02,15,24,20.80
2008,07,02,15,25,20.80
2008,07,02,15,26,20.80
2008,07,02,15,27,20.70
2008,07,02,15,28,20.70
2008,07,02,15,29,20.80
2008,07,02,15,30,20.80
2008,07,02,15,31,20.80
2008,07,02,15,32,20.90
2008,07,02,15,33,20.90
2008,07,02,15,34,20.90
2008,07,02,15,35,20.90
2008,07,02,15,36,20.90
2008,07,02,15,37,20.80
2008,07,02,15,38,20.70
2008,07,02,15,39,20.60
2008,07,02,15,40,20.60
2008,07,02,15,41,20.50
2008,07,02,15,42,20.50
2008,07,02,15,43,20.40
2008,07,02,15,44,20.30
2008,07,02,15,45,20.20
2008,07,02,15,46,20.10
2008,07,02,15,47,20.00
2008,07,02,15,48,19.90
2008,07,02,15,49,19.90
2008,07,02,15,50,19.80
2008,07,02,15,51,19.80
2008,07,02,15,52,19.80
2008,07,02,15,53,19.80
2008,07,02,15,54,19.70
2008,07,02,15,55,19.70
2008,07,02,15,56,19.70
2008,07,02,15,57,19.70
2008,07,02,15,58,19.70
2008,07,02,15,59,19.70
2008,07,02,16,00,19.70
2008,07,02,16,01,19.70
2008,07,02,16,02,19.70
2008,07,02,16,03,19.70
2008,07,02,16,04,19.70
2008,07,02,16,05,19.70
2008,07,02,16,06,19.80
2008,07,02,16,07,19.80
2008,07,02,16,08,19.80
2008,07,02,16,09,19.80
2008,07,02,16,10,19.90
2008,07,02,16,11,19.90
2008,07,02,16,12,19.90
2008,07,02,16,13,19.90
2008,07,02,16,14,20.00
2008,07,02,16,15,20.00
2008,07,02,16,16,20.00
2008,07,02,16,17,20.10
2008,07,02,16,18,20.10
2008,07,02,16,19,20.20
2008,07,02,16,20,20.30
2008,07,02,16,21,20.40
2008,07,02,16,22,20.50
2008,07,02,16,23,20.60
2008,07,02,16,24,20.70
2008,07,02,16,25,20.80
2008,07,02,16,26,20.80
2008,07,02,16,27,20.90
2008,07,02,16,28,20.90
2008,07,02,16,29,21.00
2008,07,02,16,30,21.10
2008,07,02,16,31,21.20
2008,07,02,16,32,21.30
2008,07,02,16,33,21.40
2008,07,02,16,34,21.50
2008,07,02,16,35,21.60
2008,07,02,16,36,21.70
2008,07,02,16,37,21.80
2008,07,02,16,38,21.90
2008,07,02,16,39,22.00
2008,07,02,16,40,22.10
2008,07,02,16,41,22.20
2008,07,02,16,42,22.30
2008,07,02,16,43,22.40
2008,07,02,16,44,22.50
2008,07,02,16,45,22.60
2008,07,02,16,46,22.60
2008,07,02,16,47,22.70
2008,07,02,16,48,22.70
2008,07,02,16,49,22.70
2008,07,02,16,50,22.70
2008,07,02,16,51,22.80
2008,07,02,16,52,22.80
2008,07,02,16,53,22.90
2008,07,02,16,54,22.90
2008,07,02,16,55,23.00
2008,07,02,16,56,23.00
2008,07,02,16,57,23.10
2008,07,02,16,58,23.10
2008,07,02,16,59,23.10
2008,07,02,17,00,23.10
2008,07,02,17,01,23.10
2008,07,02,17,02,23.10
2008,07,02,17,03,23.10
2008,07,02,17,04,23.20
2008,07,02,17,05,23.20
2008,07,02,17,06,23.20
2008,07,02,17,07,23.20
2008,07,02,17,08,23.30
2008,07,02,17,09,23.20
2008,07,02,17,10,23.20
2008,07,02,17,11,23.10
2008,07,02,17,12,23.00
2008,07,02,17,13,22.90
2008,07,02,17,14,22.80
2008,07,02,17,15,22.80
2008,07,02,17,16,22.80
2008,07,02,17,17,22.80
2008,07,02,17,18,22.80
2008,07,02,17,19,22.80